HAWK-5C (52754 NORAD) Tracking and Keplerian Element Data

This shows tracking and keplerian element data for the satellite.

Feedback or suggestion? Click here.




ElementValue
Catalog52754
NameHAWK-5C
Epoch Orbit712
Epoch Day192.8535825
Epoch Year2022
RAAN307.2716
Inclination97.5286
Eccentricity0.0011538
Argument of Perigee80.489
Mean Anonmoly279.7644
Mean Motion15.12651912
Decay Rate2.646E-05
L11 52754U 22057Y 22192.85358250 .00002646 00000+0 15488-3 0 9997
L22 52754 97.5286 307.2716 0011538 80.4890 279.7644 15.12651912 7127

Live tracking and technical data element details for HAWK-5C (NORAD 52754). HAWK-5C can be tracked NOW for your location showing map with azimuth and elevation plus other details from your city location.

Track the satellite on the map from your city or location and see movement details for azimuth, elevation, latitude, longitude, range, height, and movement on the map or in text.







IsCatalogInMostPopularTable: catalog: 52754, numindb: 3
Update: records affected: 1



GetName: 52754 HAWK-5C

Hit Count: updated at: Sat, 13 Aug 2022 23:57:44 GMT